Year,Month,Day,Hour,Minute,Value (Times are PST for temperature in C)
2020,06,21,00,00,16.30
2020,06,21,00,01,16.40
2020,06,21,00,02,16.40
2020,06,21,00,03,16.40
2020,06,21,00,04,16.50
2020,06,21,00,05,16.50
2020,06,21,00,06,16.60
2020,06,21,00,07,16.60
2020,06,21,00,08,16.60
2020,06,21,00,09,16.60
2020,06,21,00,10,16.60
2020,06,21,00,11,16.60
2020,06,21,00,12,16.60
2020,06,21,00,13,16.60
2020,06,21,00,14,16.60
2020,06,21,00,15,16.60
2020,06,21,00,16,16.60
2020,06,21,00,17,16.60
2020,06,21,00,18,16.60
2020,06,21,00,19,16.60
2020,06,21,00,20,16.60
2020,06,21,00,21,16.60
2020,06,21,00,22,16.60
2020,06,21,00,23,16.60
2020,06,21,00,24,16.60
2020,06,21,00,25,16.60
2020,06,21,00,26,16.60
2020,06,21,00,27,16.60
2020,06,21,00,28,16.60
2020,06,21,00,29,16.60
2020,06,21,00,30,16.60
2020,06,21,00,31,16.60
2020,06,21,00,32,16.60
2020,06,21,00,33,16.60
2020,06,21,00,34,16.60
2020,06,21,00,35,16.60
2020,06,21,00,36,16.60
2020,06,21,00,37,16.60
2020,06,21,00,38,16.60
2020,06,21,00,39,16.60
2020,06,21,00,40,16.60
2020,06,21,00,41,16.60
2020,06,21,00,42,16.50
2020,06,21,00,43,16.50
2020,06,21,00,44,16.40
2020,06,21,00,45,16.30
2020,06,21,00,46,16.20
2020,06,21,00,47,16.20
2020,06,21,00,48,16.20
2020,06,21,00,49,16.10
2020,06,21,00,50,16.10
2020,06,21,00,51,16.10
2020,06,21,00,52,16.00
2020,06,21,00,53,16.00
2020,06,21,00,54,15.90
2020,06,21,00,55,15.90
2020,06,21,00,56,15.90
2020,06,21,00,57,15.80
2020,06,21,00,58,15.80
2020,06,21,00,59,15.70
2020,06,21,01,00,15.60
2020,06,21,01,01,15.60
2020,06,21,01,02,15.60
2020,06,21,01,03,15.60
2020,06,21,01,04,15.60
2020,06,21,01,05,15.50
2020,06,21,01,06,15.50
2020,06,21,01,07,15.50
2020,06,21,01,08,15.50
2020,06,21,01,09,15.40
2020,06,21,01,10,15.40
2020,06,21,01,11,15.40
2020,06,21,01,12,15.40
2020,06,21,01,13,15.40
2020,06,21,01,14,15.30
2020,06,21,01,15,15.30
2020,06,21,01,16,15.30
2020,06,21,01,17,15.30
2020,06,21,01,18,15.30
2020,06,21,01,19,15.30
2020,06,21,01,20,15.30
2020,06,21,01,21,15.20
2020,06,21,01,22,15.20
2020,06,21,01,23,15.20
2020,06,21,01,24,15.20
2020,06,21,01,25,15.20
2020,06,21,01,26,15.20
2020,06,21,01,27,15.20
2020,06,21,01,28,15.20
2020,06,21,01,29,15.20
2020,06,21,01,30,15.20
2020,06,21,01,31,15.20
2020,06,21,01,32,15.20
2020,06,21,01,33,15.20
2020,06,21,01,34,15.20
2020,06,21,01,35,15.20
2020,06,21,01,36,15.20
2020,06,21,01,37,15.20
2020,06,21,01,38,15.20
2020,06,21,01,39,15.20
2020,06,21,01,40,15.20
2020,06,21,01,41,15.20
2020,06,21,01,42,15.20
2020,06,21,01,43,15.20
2020,06,21,01,44,15.20
2020,06,21,01,45,15.20
2020,06,21,01,46,15.20
2020,06,21,01,47,15.20
2020,06,21,01,48,15.20
2020,06,21,01,49,15.20
2020,06,21,01,50,15.20
2020,06,21,01,51,15.20
2020,06,21,01,52,15.20
2020,06,21,01,53,15.20
2020,06,21,01,54,15.20
2020,06,21,01,55,15.20
2020,06,21,01,56,15.20
2020,06,21,01,57,15.20
2020,06,21,01,58,15.20
2020,06,21,01,59,15.20
2020,06,21,02,00,15.20
2020,06,21,02,01,15.20
2020,06,21,02,02,15.20
2020,06,21,02,03,15.20
2020,06,21,02,04,15.20
2020,06,21,02,05,15.20
2020,06,21,02,06,15.20
2020,06,21,02,07,15.20
2020,06,21,02,08,15.30
2020,06,21,02,09,15.30
2020,06,21,02,10,15.30
2020,06,21,02,11,15.30
2020,06,21,02,12,15.30
2020,06,21,02,13,15.30
2020,06,21,02,14,15.30
2020,06,21,02,15,15.30
2020,06,21,02,16,15.30
2020,06,21,02,17,15.30
2020,06,21,02,18,15.30
2020,06,21,02,19,15.30
2020,06,21,02,20,15.30
2020,06,21,02,21,15.30
2020,06,21,02,22,15.30
2020,06,21,02,23,15.30
2020,06,21,02,24,15.30
2020,06,21,02,25,15.30
2020,06,21,02,26,15.30
2020,06,21,02,27,15.30
2020,06,21,02,28,15.30
2020,06,21,02,29,15.30
2020,06,21,02,30,15.30
2020,06,21,02,31,15.20
2020,06,21,02,32,15.30
2020,06,21,02,33,15.30
2020,06,21,02,34,15.30
2020,06,21,02,35,15.30
2020,06,21,02,36,15.30
2020,06,21,02,37,15.30
2020,06,21,02,38,15.30
2020,06,21,02,39,15.30
2020,06,21,02,40,15.30
2020,06,21,02,41,15.30
2020,06,21,02,42,15.30
2020,06,21,02,43,15.30
2020,06,21,02,44,15.20
2020,06,21,02,45,15.20
2020,06,21,02,46,15.20
2020,06,21,02,47,15.20
2020,06,21,02,48,15.20
2020,06,21,02,49,15.20
2020,06,21,02,50,15.20
2020,06,21,02,51,15.20
2020,06,21,02,52,15.20
2020,06,21,02,53,15.20
2020,06,21,02,54,15.20
2020,06,21,02,55,15.20
2020,06,21,02,56,15.20
2020,06,21,02,57,15.20
2020,06,21,02,58,15.20
2020,06,21,02,59,15.20
2020,06,21,03,00,15.20
2020,06,21,03,01,15.20
2020,06,21,03,02,15.20
2020,06,21,03,03,15.20
2020,06,21,03,04,15.20
2020,06,21,03,05,15.20
2020,06,21,03,06,15.20
2020,06,21,03,07,15.20
2020,06,21,03,08,15.20
2020,06,21,03,09,15.20
2020,06,21,03,10,15.20
2020,06,21,03,11,15.20
2020,06,21,03,12,15.20
2020,06,21,03,13,15.20
2020,06,21,03,14,15.20
2020,06,21,03,15,15.20
2020,06,21,03,16,15.20
2020,06,21,03,17,15.20
2020,06,21,03,18,15.20
2020,06,21,03,19,15.20
2020,06,21,03,20,15.20
2020,06,21,03,21,15.20
2020,06,21,03,22,15.20
2020,06,21,03,23,15.20
2020,06,21,03,24,15.20
2020,06,21,03,25,15.20
2020,06,21,03,26,15.20
2020,06,21,03,27,15.20
2020,06,21,03,28,15.20
2020,06,21,03,29,15.10
2020,06,21,03,30,15.10
2020,06,21,03,31,15.10
2020,06,21,03,32,15.10
2020,06,21,03,33,15.10
2020,06,21,03,34,15.10
2020,06,21,03,35,15.10
2020,06,21,03,36,15.10
2020,06,21,03,37,15.10
2020,06,21,03,38,15.10
2020,06,21,03,39,15.10
2020,06,21,03,40,15.10
2020,06,21,03,41,15.10
2020,06,21,03,42,15.10
2020,06,21,03,43,15.10
2020,06,21,03,44,15.10
2020,06,21,03,45,15.10
2020,06,21,03,46,15.10
2020,06,21,03,47,15.10
2020,06,21,03,48,15.00
2020,06,21,03,49,15.00
2020,06,21,03,50,15.00
2020,06,21,03,51,15.00
2020,06,21,03,52,15.00
2020,06,21,03,53,15.00
2020,06,21,03,54,15.00
2020,06,21,03,55,15.00
2020,06,21,03,56,15.00
2020,06,21,03,57,15.00
2020,06,21,03,58,15.00
2020,06,21,03,59,14.90
2020,06,21,04,00,14.90
2020,06,21,04,01,14.90
2020,06,21,04,02,14.90
2020,06,21,04,03,14.90
2020,06,21,04,04,14.90
2020,06,21,04,05,14.90
2020,06,21,04,06,14.90
2020,06,21,04,07,14.90
2020,06,21,04,08,14.80
2020,06,21,04,09,14.80
2020,06,21,04,10,14.80
2020,06,21,04,11,14.80
2020,06,21,04,12,14.80
2020,06,21,04,13,14.80
2020,06,21,04,14,14.80
2020,06,21,04,15,14.80
2020,06,21,04,16,14.80
2020,06,21,04,17,14.80
2020,06,21,04,18,14.70
2020,06,21,04,19,14.70
2020,06,21,04,20,14.70
2020,06,21,04,21,14.70
2020,06,21,04,22,14.70
2020,06,21,04,23,14.70
2020,06,21,04,24,14.70
2020,06,21,04,25,14.70
2020,06,21,04,26,14.70
2020,06,21,04,27,14.70
2020,06,21,04,28,14.70
2020,06,21,04,29,14.70
2020,06,21,04,30,14.70
2020,06,21,04,31,14.70
2020,06,21,04,32,14.70
2020,06,21,04,33,14.70
2020,06,21,04,34,14.70
2020,06,21,04,35,14.70
2020,06,21,04,36,14.60
2020,06,21,04,37,14.60
2020,06,21,04,38,14.60
2020,06,21,04,39,14.60
2020,06,21,04,40,14.60
2020,06,21,04,41,14.60
2020,06,21,04,42,14.50
2020,06,21,04,43,14.50
2020,06,21,04,44,14.50
2020,06,21,04,45,14.50
2020,06,21,04,46,14.50
2020,06,21,04,47,14.50
2020,06,21,04,48,14.50
2020,06,21,04,49,14.50
2020,06,21,04,50,14.40
2020,06,21,04,51,14.40
2020,06,21,04,52,14.40
2020,06,21,04,53,14.30
2020,06,21,04,54,14.30
2020,06,21,04,55,14.30
2020,06,21,04,56,14.30
2020,06,21,04,57,14.30
2020,06,21,04,58,14.30
2020,06,21,04,59,14.30
2020,06,21,05,00,14.20
2020,06,21,05,01,14.20
2020,06,21,05,02,14.20
2020,06,21,05,03,14.20
2020,06,21,05,04,14.20
2020,06,21,05,05,14.20
2020,06,21,05,06,14.20
2020,06,21,05,07,14.10
2020,06,21,05,08,14.10
2020,06,21,05,09,14.10
2020,06,21,05,10,14.00
2020,06,21,05,11,14.10
2020,06,21,05,12,14.00
2020,06,21,05,13,14.00
2020,06,21,05,14,14.00
2020,06,21,05,15,13.90
2020,06,21,05,16,13.90
2020,06,21,05,17,13.90
2020,06,21,05,18,13.90
2020,06,21,05,19,13.90
2020,06,21,05,20,13.90
2020,06,21,05,21,13.90
2020,06,21,05,22,13.90
2020,06,21,05,23,13.80
2020,06,21,05,24,13.80
2020,06,21,05,25,13.80
2020,06,21,05,26,13.80
2020,06,21,05,27,13.80
2020,06,21,05,28,13.80
2020,06,21,05,29,13.80
2020,06,21,05,30,13.80
2020,06,21,05,31,13.80
2020,06,21,05,32,13.80
2020,06,21,05,33,13.80
2020,06,21,05,34,13.80
2020,06,21,05,35,13.80
2020,06,21,05,36,13.80
2020,06,21,05,37,13.80
2020,06,21,05,38,13.80
2020,06,21,05,39,13.80
2020,06,21,05,40,13.90
2020,06,21,05,41,13.90
2020,06,21,05,42,13.90
2020,06,21,05,43,13.90
2020,06,21,05,44,13.90
2020,06,21,05,45,13.90
2020,06,21,05,46,13.90
2020,06,21,05,47,13.90
2020,06,21,05,48,13.90
2020,06,21,05,49,13.90
2020,06,21,05,50,13.90
2020,06,21,05,51,13.90
2020,06,21,05,52,14.00
2020,06,21,05,53,14.00
2020,06,21,05,54,14.00
2020,06,21,05,55,14.00
2020,06,21,05,56,14.00
2020,06,21,05,57,14.10
2020,06,21,05,58,14.10
2020,06,21,05,59,14.10
2020,06,21,06,00,14.20
2020,06,21,06,01,14.20
2020,06,21,06,02,14.20
2020,06,21,06,03,14.20
2020,06,21,06,04,14.20
2020,06,21,06,05,14.30
2020,06,21,06,06,14.30
2020,06,21,06,07,14.30
2020,06,21,06,08,14.30
2020,06,21,06,09,14.30
2020,06,21,06,10,14.30
2020,06,21,06,11,14.40
2020,06,21,06,12,14.40
2020,06,21,06,13,14.40
2020,06,21,06,14,14.50
2020,06,21,06,15,14.50
2020,06,21,06,16,14.60
2020,06,21,06,17,14.60
2020,06,21,06,18,14.60
2020,06,21,06,19,14.70
2020,06,21,06,20,14.70
2020,06,21,06,21,14.70
2020,06,21,06,22,14.70
2020,06,21,06,23,14.60
2020,06,21,06,24,14.70
2020,06,21,06,25,14.70
2020,06,21,06,26,14.70
2020,06,21,06,27,14.70
2020,06,21,06,28,14.80
2020,06,21,06,29,14.80
2020,06,21,06,30,14.70
2020,06,21,06,31,14.70
2020,06,21,06,32,14.70
2020,06,21,06,33,14.70
2020,06,21,06,34,14.80
2020,06,21,06,35,14.80
2020,06,21,06,36,14.80
2020,06,21,06,37,14.80
2020,06,21,06,38,14.90
2020,06,21,06,39,14.90
2020,06,21,06,40,14.90
2020,06,21,06,41,14.90
2020,06,21,06,42,14.90
2020,06,21,06,43,14.90
2020,06,21,06,44,14.90
2020,06,21,06,45,15.00
2020,06,21,06,46,15.00
2020,06,21,06,47,15.00
2020,06,21,06,48,15.00
2020,06,21,06,49,15.00
2020,06,21,06,50,15.00
2020,06,21,06,51,15.10
2020,06,21,06,52,15.10
2020,06,21,06,53,15.10
2020,06,21,06,54,15.10
2020,06,21,06,55,15.20
2020,06,21,06,56,15.20
2020,06,21,06,57,15.20
2020,06,21,06,58,15.20
2020,06,21,06,59,15.20
2020,06,21,07,00,15.20
2020,06,21,07,01,15.20
2020,06,21,07,02,15.20
2020,06,21,07,03,15.10
2020,06,21,07,04,15.10
2020,06,21,07,05,15.20
2020,06,21,07,06,15.20
2020,06,21,07,07,15.20
2020,06,21,07,08,15.20
2020,06,21,07,09,15.20
2020,06,21,07,10,15.20
2020,06,21,07,11,15.20
2020,06,21,07,12,15.20
2020,06,21,07,13,15.20
2020,06,21,07,14,15.20
2020,06,21,07,15,15.30
2020,06,21,07,16,15.30
2020,06,21,07,17,15.20
2020,06,21,07,18,15.20
2020,06,21,07,19,15.20
2020,06,21,07,20,15.20
2020,06,21,07,21,15.20
2020,06,21,07,22,15.20
2020,06,21,07,23,15.20
2020,06,21,07,24,15.20
2020,06,21,07,25,15.30
2020,06,21,07,26,15.30
2020,06,21,07,27,15.30
2020,06,21,07,28,15.40
2020,06,21,07,29,15.40
2020,06,21,07,30,15.40
2020,06,21,07,31,15.50
2020,06,21,07,32,15.50
2020,06,21,07,33,15.50
2020,06,21,07,34,15.60
2020,06,21,07,35,15.50
2020,06,21,07,36,15.50
2020,06,21,07,37,15.50
2020,06,21,07,38,15.40
2020,06,21,07,39,15.40
2020,06,21,07,40,15.30
2020,06,21,07,41,15.30
2020,06,21,07,42,15.30
2020,06,21,07,43,15.30
2020,06,21,07,44,15.30
2020,06,21,07,45,15.30
2020,06,21,07,46,15.30
2020,06,21,07,47,15.30
2020,06,21,07,48,15.30
2020,06,21,07,49,15.20
2020,06,21,07,50,15.20
2020,06,21,07,51,15.30
2020,06,21,07,52,15.30
2020,06,21,07,53,15.30
2020,06,21,07,54,15.30
2020,06,21,07,55,15.40
2020,06,21,07,56,15.50
2020,06,21,07,57,15.50
2020,06,21,07,58,15.60
2020,06,21,07,59,15.60
2020,06,21,08,00,15.60
2020,06,21,08,01,15.70
2020,06,21,08,02,15.70
2020,06,21,08,03,15.70
2020,06,21,08,04,15.70
2020,06,21,08,05,15.70
2020,06,21,08,06,15.70
2020,06,21,08,07,15.70
2020,06,21,08,08,15.70
2020,06,21,08,09,15.70
2020,06,21,08,10,15.70
2020,06,21,08,11,15.70
2020,06,21,08,12,15.70
2020,06,21,08,13,15.70
2020,06,21,08,14,15.70
2020,06,21,08,15,15.70
2020,06,21,08,16,15.70
2020,06,21,08,17,15.80
2020,06,21,08,18,15.80
2020,06,21,08,19,15.80
2020,06,21,08,20,15.80
2020,06,21,08,21,15.80
2020,06,21,08,22,15.80
2020,06,21,08,23,15.80
2020,06,21,08,24,15.90
2020,06,21,08,25,15.90
2020,06,21,08,26,15.90
2020,06,21,08,27,15.90
2020,06,21,08,28,15.90
2020,06,21,08,29,16.00
2020,06,21,08,30,16.00
2020,06,21,08,31,16.00
2020,06,21,08,32,16.00
2020,06,21,08,33,16.00
2020,06,21,08,34,15.90
2020,06,21,08,35,15.90
2020,06,21,08,36,15.90
2020,06,21,08,37,15.90
2020,06,21,08,38,15.90
2020,06,21,08,39,15.90
2020,06,21,08,40,15.90
2020,06,21,08,41,16.00
2020,06,21,08,42,16.00
2020,06,21,08,43,16.10
2020,06,21,08,44,16.10
2020,06,21,08,45,16.00
2020,06,21,08,46,16.00
2020,06,21,08,47,15.90
2020,06,21,08,48,15.90
2020,06,21,08,49,15.90
2020,06,21,08,50,15.90
2020,06,21,08,51,16.00
2020,06,21,08,52,16.00
2020,06,21,08,53,16.10
2020,06,21,08,54,16.20
2020,06,21,08,55,16.20
2020,06,21,08,56,16.20
2020,06,21,08,57,16.20
2020,06,21,08,58,16.20
2020,06,21,08,59,16.20
2020,06,21,09,00,16.30
2020,06,21,09,01,16.30
2020,06,21,09,02,16.30
2020,06,21,09,03,16.40
2020,06,21,09,04,16.40
2020,06,21,09,05,16.40
2020,06,21,09,06,16.40
2020,06,21,09,07,16.30
2020,06,21,09,08,16.20
2020,06,21,09,09,16.20
2020,06,21,09,10,16.10
2020,06,21,09,11,16.10
2020,06,21,09,12,16.10
2020,06,21,09,13,16.00
2020,06,21,09,14,16.00
2020,06,21,09,15,16.00
2020,06,21,09,16,16.00
2020,06,21,09,17,16.10
2020,06,21,09,18,16.10
2020,06,21,09,19,16.10
2020,06,21,09,20,16.10
2020,06,21,09,21,16.10
2020,06,21,09,22,16.10
2020,06,21,09,23,16.00
2020,06,21,09,24,16.00
2020,06,21,09,25,16.00
2020,06,21,09,26,16.00
2020,06,21,09,27,16.00
2020,06,21,09,28,16.00
2020,06,21,09,29,16.00
2020,06,21,09,30,16.10
2020,06,21,09,31,16.10
2020,06,21,09,32,16.10
2020,06,21,09,33,16.10
2020,06,21,09,34,16.10
2020,06,21,09,35,16.10
2020,06,21,09,36,16.10
2020,06,21,09,37,16.10
2020,06,21,09,38,16.20
2020,06,21,09,39,16.20
2020,06,21,09,40,16.20
2020,06,21,09,41,16.30
2020,06,21,09,42,16.40
2020,06,21,09,43,16.50
2020,06,21,09,44,16.50
2020,06,21,09,45,16.50
2020,06,21,09,46,16.50
2020,06,21,09,47,16.50
2020,06,21,09,48,16.40
2020,06,21,09,49,16.40
2020,06,21,09,50,16.40
2020,06,21,09,51,16.40
2020,06,21,09,52,16.40
2020,06,21,09,53,16.30
2020,06,21,09,54,16.30
2020,06,21,09,55,16.20
2020,06,21,09,56,16.20
2020,06,21,09,57,16.20
2020,06,21,09,58,16.10
2020,06,21,09,59,16.10
2020,06,21,10,00,16.10
2020,06,21,10,01,16.10
2020,06,21,10,02,16.00
2020,06,21,10,03,16.00
2020,06,21,10,04,16.10
2020,06,21,10,05,16.10
2020,06,21,10,06,16.10
2020,06,21,10,07,16.10
2020,06,21,10,08,16.10
2020,06,21,10,09,16.00
2020,06,21,10,10,16.00
2020,06,21,10,11,16.00
2020,06,21,10,12,16.00
2020,06,21,10,13,16.00
2020,06,21,10,14,15.90
2020,06,21,10,15,16.00
2020,06,21,10,16,16.00
2020,06,21,10,17,16.00
2020,06,21,10,18,16.00
2020,06,21,10,19,16.10
2020,06,21,10,20,16.10
2020,06,21,10,21,16.10
2020,06,21,10,22,16.10
2020,06,21,10,23,16.10
2020,06,21,10,24,16.10
2020,06,21,10,25,16.10
2020,06,21,10,26,16.20
2020,06,21,10,27,16.30
2020,06,21,10,28,16.30
2020,06,21,10,29,16.40
2020,06,21,10,30,16.40
2020,06,21,10,31,16.40
2020,06,21,10,32,16.40
2020,06,21,10,33,16.40
2020,06,21,10,34,16.40
2020,06,21,10,35,16.30
2020,06,21,10,36,16.30
2020,06,21,10,37,16.30
2020,06,21,10,38,16.30
2020,06,21,10,39,16.30
2020,06,21,10,40,16.20
2020,06,21,10,41,16.20
2020,06,21,10,42,16.20
2020,06,21,10,43,16.10
2020,06,21,10,44,16.10
2020,06,21,10,45,16.00
2020,06,21,10,46,16.10
2020,06,21,10,47,16.10
2020,06,21,10,48,16.20
2020,06,21,10,49,16.30
2020,06,21,10,50,16.40
2020,06,21,10,51,16.40
2020,06,21,10,52,16.40
2020,06,21,10,53,16.40
2020,06,21,10,54,16.40
2020,06,21,10,55,16.40
2020,06,21,10,56,16.40
2020,06,21,10,57,16.40
2020,06,21,10,58,16.40
2020,06,21,10,59,16.40
2020,06,21,11,00,16.50
2020,06,21,11,01,16.60
2020,06,21,11,02,16.60
2020,06,21,11,03,16.60
2020,06,21,11,04,16.60
2020,06,21,11,05,16.50
2020,06,21,11,06,16.50
2020,06,21,11,07,16.40
2020,06,21,11,08,16.40
2020,06,21,11,09,16.40
2020,06,21,11,10,16.40
2020,06,21,11,11,16.40
2020,06,21,11,12,16.40
2020,06,21,11,13,16.50
2020,06,21,11,14,16.60
2020,06,21,11,15,16.60
2020,06,21,11,16,16.60
2020,06,21,11,17,16.60
2020,06,21,11,18,16.60
2020,06,21,11,19,16.60
2020,06,21,11,20,16.60
2020,06,21,11,21,16.60
2020,06,21,11,22,16.60
2020,06,21,11,23,16.60
2020,06,21,11,24,16.60
2020,06,21,11,25,16.60
2020,06,21,11,26,16.50
2020,06,21,11,27,16.50
2020,06,21,11,28,16.40
2020,06,21,11,29,16.50
2020,06,21,11,30,16.60
2020,06,21,11,31,16.60
2020,06,21,11,32,16.60
2020,06,21,11,33,16.60
2020,06,21,11,34,16.70
2020,06,21,11,35,16.70
2020,06,21,11,36,16.70
2020,06,21,11,37,16.70
2020,06,21,11,38,16.70
2020,06,21,11,39,16.80
2020,06,21,11,40,16.70
2020,06,21,11,41,16.70
2020,06,21,11,42,16.70
2020,06,21,11,43,16.70
2020,06,21,11,44,16.80
2020,06,21,11,45,16.80
2020,06,21,11,46,16.70
2020,06,21,11,47,16.80
2020,06,21,11,48,16.80
2020,06,21,11,49,16.90
2020,06,21,11,50,16.90
2020,06,21,11,51,16.90
2020,06,21,11,52,17.00
2020,06,21,11,53,17.10
2020,06,21,11,54,17.30
2020,06,21,11,55,17.40
2020,06,21,11,56,17.50
2020,06,21,11,57,17.70
2020,06,21,11,58,17.80
2020,06,21,11,59,18.00
2020,06,21,12,00,18.00
2020,06,21,12,01,18.10
2020,06,21,12,02,18.10
2020,06,21,12,03,18.10
2020,06,21,12,04,18.10
2020,06,21,12,05,18.20
2020,06,21,12,06,18.20
2020,06,21,12,07,18.10
2020,06,21,12,08,18.00
2020,06,21,12,09,17.90
2020,06,21,12,10,18.00
2020,06,21,12,11,18.00
2020,06,21,12,12,18.00
2020,06,21,12,13,18.10
2020,06,21,12,14,18.20
2020,06,21,12,15,18.30
2020,06,21,12,16,18.30
2020,06,21,12,17,18.30
2020,06,21,12,18,18.20
2020,06,21,12,19,18.20
2020,06,21,12,20,18.30
2020,06,21,12,21,18.40
2020,06,21,12,22,18.40
2020,06,21,12,23,18.40
2020,06,21,12,24,18.30
2020,06,21,12,25,18.20
2020,06,21,12,26,18.10
2020,06,21,12,27,18.10
2020,06,21,12,28,18.10
2020,06,21,12,29,18.10
2020,06,21,12,30,18.20
2020,06,21,12,31,18.30
2020,06,21,12,32,18.40
2020,06,21,12,33,18.50
2020,06,21,12,34,18.60
2020,06,21,12,35,18.50
2020,06,21,12,36,18.50
2020,06,21,12,37,18.40
2020,06,21,12,38,18.40
2020,06,21,12,39,18.40
2020,06,21,12,40,18.40
2020,06,21,12,41,18.30
2020,06,21,12,42,18.20
2020,06,21,12,43,18.10
2020,06,21,12,44,18.10
2020,06,21,12,45,18.10
2020,06,21,12,46,18.20
2020,06,21,12,47,18.30
2020,06,21,12,48,18.40
2020,06,21,12,49,18.50
2020,06,21,12,50,18.60
2020,06,21,12,51,18.60
2020,06,21,12,52,18.60
2020,06,21,12,53,18.50
2020,06,21,12,54,18.40
2020,06,21,12,55,18.30
2020,06,21,12,56,18.20
2020,06,21,12,57,18.10
2020,06,21,12,58,18.00
2020,06,21,12,59,17.90
2020,06,21,13,00,17.80
2020,06,21,13,01,17.80
2020,06,21,13,02,17.80
2020,06,21,13,03,17.80
2020,06,21,13,04,17.90
2020,06,21,13,05,17.90
2020,06,21,13,06,17.90
2020,06,21,13,07,18.00
2020,06,21,13,08,18.10
2020,06,21,13,09,18.20
2020,06,21,13,10,18.30
2020,06,21,13,11,18.40
2020,06,21,13,12,18.50
2020,06,21,13,13,18.60
2020,06,21,13,14,18.70
2020,06,21,13,15,18.70
2020,06,21,13,16,18.70
2020,06,21,13,17,18.60
2020,06,21,13,18,18.60
2020,06,21,13,19,18.40
2020,06,21,13,20,18.40
2020,06,21,13,21,18.30
2020,06,21,13,22,18.30
2020,06,21,13,23,18.30
2020,06,21,13,24,18.30
2020,06,21,13,25,18.40
2020,06,21,13,26,18.40
2020,06,21,13,27,18.40
2020,06,21,13,28,18.30
2020,06,21,13,29,18.20
2020,06,21,13,30,18.10
2020,06,21,13,31,18.00
2020,06,21,13,32,18.10
2020,06,21,13,33,18.10
2020,06,21,13,34,18.00
2020,06,21,13,35,18.00
2020,06,21,13,36,18.00
2020,06,21,13,37,18.00
2020,06,21,13,38,18.00
2020,06,21,13,39,18.00
2020,06,21,13,40,18.00
2020,06,21,13,41,18.00
2020,06,21,13,42,18.00
2020,06,21,13,43,18.10
2020,06,21,13,44,18.10
2020,06,21,13,45,18.00
2020,06,21,13,46,18.00
2020,06,21,13,47,18.00
2020,06,21,13,48,18.00
2020,06,21,13,49,18.00
2020,06,21,13,50,18.00
2020,06,21,13,51,18.00
2020,06,21,13,52,17.90
2020,06,21,13,53,17.90
2020,06,21,13,54,18.00
2020,06,21,13,55,18.10
2020,06,21,13,56,18.20
2020,06,21,13,57,18.30
2020,06,21,13,58,18.40
2020,06,21,13,59,18.50
2020,06,21,14,00,18.60
2020,06,21,14,01,18.70
2020,06,21,14,02,18.80
2020,06,21,14,03,18.80
2020,06,21,14,04,18.80
2020,06,21,14,05,18.70
2020,06,21,14,06,18.60
2020,06,21,14,07,18.60
2020,06,21,14,08,18.50
2020,06,21,14,09,18.50
2020,06,21,14,10,18.50
2020,06,21,14,11,18.50
2020,06,21,14,12,18.60
2020,06,21,14,13,18.70
2020,06,21,14,14,18.80
2020,06,21,14,15,19.00
2020,06,21,14,16,19.20
2020,06,21,14,17,19.50
2020,06,21,14,18,19.60
2020,06,21,14,19,19.70
2020,06,21,14,20,19.80
2020,06,21,14,21,19.90
2020,06,21,14,22,19.90
2020,06,21,14,23,20.00
2020,06,21,14,24,20.10
2020,06,21,14,25,20.10
2020,06,21,14,26,20.20
2020,06,21,14,27,20.30
2020,06,21,14,28,20.30
2020,06,21,14,29,20.30
2020,06,21,14,30,20.30
2020,06,21,14,31,20.30
2020,06,21,14,32,20.30
2020,06,21,14,33,20.30
2020,06,21,14,34,20.20
2020,06,21,14,35,20.10
2020,06,21,14,36,20.00
2020,06,21,14,37,20.00
2020,06,21,14,38,20.00
2020,06,21,14,39,20.00
2020,06,21,14,40,20.00
2020,06,21,14,41,20.10
2020,06,21,14,42,20.10
2020,06,21,14,43,20.20
2020,06,21,14,44,20.20
2020,06,21,14,45,20.20
2020,06,21,14,46,20.30
2020,06,21,14,47,20.30
2020,06,21,14,48,20.40
2020,06,21,14,49,20.50
2020,06,21,14,50,20.50
2020,06,21,14,51,20.50
2020,06,21,14,52,20.60
2020,06,21,14,53,20.60
2020,06,21,14,54,20.70
2020,06,21,14,55,20.80
2020,06,21,14,56,20.90
2020,06,21,14,57,21.00
2020,06,21,14,58,21.20
2020,06,21,14,59,21.30
2020,06,21,15,00,21.40
2020,06,21,15,01,21.40
2020,06,21,15,02,21.50
2020,06,21,15,03,21.50
2020,06,21,15,04,21.50
2020,06,21,15,05,21.60
2020,06,21,15,06,21.50
2020,06,21,15,07,21.50
2020,06,21,15,08,21.40
2020,06,21,15,09,21.40
2020,06,21,15,10,21.30
2020,06,21,15,11,21.30
2020,06,21,15,12,21.30
2020,06,21,15,13,21.20
2020,06,21,15,14,21.20
2020,06,21,15,15,21.20
2020,06,21,15,16,21.20
2020,06,21,15,17,21.20
2020,06,21,15,18,21.20
2020,06,21,15,19,21.30
2020,06,21,15,20,21.30
2020,06,21,15,21,21.30
2020,06,21,15,22,21.30
2020,06,21,15,23,21.40
2020,06,21,15,24,21.40
2020,06,21,15,25,21.40
2020,06,21,15,26,21.50
2020,06,21,15,27,21.50
2020,06,21,15,28,21.50
2020,06,21,15,29,21.60
2020,06,21,15,30,21.70
2020,06,21,15,31,21.70
2020,06,21,15,32,21.60
2020,06,21,15,33,21.50
2020,06,21,15,34,21.40
2020,06,21,15,35,21.30
2020,06,21,15,36,21.20
2020,06,21,15,37,21.10
2020,06,21,15,38,21.10
2020,06,21,15,39,21.00
2020,06,21,15,40,21.00
2020,06,21,15,41,21.00
2020,06,21,15,42,21.00
2020,06,21,15,43,21.10
2020,06,21,15,44,21.10
2020,06,21,15,45,21.10
2020,06,21,15,46,21.00
2020,06,21,15,47,21.00
2020,06,21,15,48,20.90
2020,06,21,15,49,20.90
2020,06,21,15,50,20.90
2020,06,21,15,51,21.00
2020,06,21,15,52,20.90
2020,06,21,15,53,20.80
2020,06,21,15,54,20.80
2020,06,21,15,55,20.80
2020,06,21,15,56,20.80
2020,06,21,15,57,20.80
2020,06,21,15,58,20.90
2020,06,21,15,59,20.90
2020,06,21,16,00,20.90
2020,06,21,16,01,20.90
2020,06,21,16,02,20.90
2020,06,21,16,03,20.90
2020,06,21,16,04,20.90
2020,06,21,16,05,21.00
2020,06,21,16,06,21.00
2020,06,21,16,07,21.00
2020,06,21,16,08,21.00
2020,06,21,16,09,21.00
2020,06,21,16,10,21.00
2020,06,21,16,11,20.90
2020,06,21,16,12,20.80
2020,06,21,16,13,20.80
2020,06,21,16,14,20.80
2020,06,21,16,15,20.70
2020,06,21,16,16,20.70
2020,06,21,16,17,20.60
2020,06,21,16,18,20.50
2020,06,21,16,19,20.50
2020,06,21,16,20,20.60
2020,06,21,16,21,20.60
2020,06,21,16,22,20.70
2020,06,21,16,23,20.80
2020,06,21,16,24,20.80
2020,06,21,16,25,20.80
2020,06,21,16,26,20.80
2020,06,21,16,27,20.90
2020,06,21,16,28,20.90
2020,06,21,16,29,20.90
2020,06,21,16,30,21.00
2020,06,21,16,31,21.10
2020,06,21,16,32,21.10
2020,06,21,16,33,21.10
2020,06,21,16,34,21.10
2020,06,21,16,35,21.10
2020,06,21,16,36,21.10
2020,06,21,16,37,21.10
2020,06,21,16,38,21.20
2020,06,21,16,39,21.20
2020,06,21,16,40,21.30
2020,06,21,16,41,21.40
2020,06,21,16,42,21.40
2020,06,21,16,43,21.50
2020,06,21,16,44,21.50
2020,06,21,16,45,21.50
2020,06,21,16,46,21.40
2020,06,21,16,47,21.30
2020,06,21,16,48,21.20
2020,06,21,16,49,21.20
2020,06,21,16,50,21.20
2020,06,21,16,51,21.20
2020,06,21,16,52,21.20
2020,06,21,16,53,21.30
2020,06,21,16,54,21.30
2020,06,21,16,55,21.30
2020,06,21,16,56,21.30
2020,06,21,16,57,21.30
2020,06,21,16,58,21.30
2020,06,21,16,59,21.30
2020,06,21,17,00,21.20
2020,06,21,17,01,21.10
2020,06,21,17,02,21.10
2020,06,21,17,03,21.10
2020,06,21,17,04,21.10
2020,06,21,17,05,21.00
2020,06,21,17,06,21.00
2020,06,21,17,07,20.90
2020,06,21,17,08,20.90
2020,06,21,17,09,20.90
2020,06,21,17,10,20.90
2020,06,21,17,11,20.90
2020,06,21,17,12,20.90
2020,06,21,17,13,20.90
2020,06,21,17,14,20.90
2020,06,21,17,15,20.90
2020,06,21,17,16,20.90
2020,06,21,17,17,20.90
2020,06,21,17,18,20.90
2020,06,21,17,19,20.90